Location: Recife
(8.0585°S, 34.8848°W)
Time: 20:43:56
(UTC-03:00)

A-11 Canister half - Pass Details

Date: 18 April 2026
Orbit: 1523 x 1684 km, 47.3° (Epoch: 16 May)

Event Time Altitude Azimuth Distance (km) Brightness Sun altitude
Rises 09:16:30 0° 315° (NW) 4,823 11.5 54.1°
Reaches altitude 10° 09:19:40 10° 313° (NW) 3,817 11.1 54.8°
Maximum altitude 09:29:18 72° 230° (SW) 1,638 9.9 56.8°
Drops below altitude 10° 09:38:40 10° 146° (SE) 3,716 11.1 58.7°
Sets 09:41:43 0° 143° (SE) 4,689 11.5 59.3°
